This demonstration page uses our WeatherBlox Daily Observations layout. Learn more.

Left ArrowRight Arrow

40.97296, -117.73568

Hourly Observations for August 27, 2016

Temp ( °F °C ) Dew Point ( °F °C ) Humidity (%) Winds ( mph kmh ) Pressure ( in mb ) Visibility ( mi km ) Precip ( " mm )
12:56 am 00:56 Clear 50 10 20 -6.7 30 30 S 6 9 29.89 1012 10 16 0.00 0.00
1:56 am 01:56 Clear 46 7.8 21 -6.1 37 37 ESE 6 9 29.90 1012 10 16 0.00 0.00
2:56 am 02:56 Clear 45 7.2 19 -7.2 35 35 Calm 29.91 1013 10 16 0.00 0.00
3:56 am 03:56 Clear 44 6.7 21 -6.1 40 40 ESE 8 13 29.91 1013 10 16 0.00 0.00
4:56 am 04:56 Clear 44 6.7 22 -5.6 41 41 SE 7 11 29.93 1013 10 16 0.00 0.00
5:56 am 05:56 Clear 41 5 20 -6.7 43 43 E 3 6 29.94 1014 10 16 0.00 0.00
6:56 am 06:56 Sunny 48 8.9 22 -5.6 36 36 E 3 6 29.94 1014 10 16 0.00 0.00
7:56 am 07:56 Sunny 57 13.9 25 -3.9 29 29 Calm 29.96 1015 10 16 0.00 0.00
8:56 am 08:56 Sunny 66 18.9 24 -4.4 20 20 Calm 29.96 1015 10 16 0.00 0.00
9:56 am 09:56 Sunny 75 23.9 23 -5 14 14 VRB 3 6 29.95 1014 10 16 0.00 0.00
10:56 am 10:56 Sunny 81 27.2 25 -3.9 13 13 VRB 5 7 29.93 1014 10 16 0.00 0.00
11:56 am 11:56 Sunny 85 29.4 25 -3.9 11 11 NE 3 6 29.91 1013 10 16 0.00 0.00
12:56 pm 12:56 Sunny 87 30.6 24 -4.4 10 10 WSW 10 17 29.91 1013 10 16 0.00 0.00
1:56 pm 13:56 Sunny 87 30.6 25 -3.9 10 10 VRB 3 6 29.90 1013 10 16 0.00 0.00
2:56 pm 14:56 Sunny 90 32.2 26 -3.3 10 10 WNW 8 13 29.88 1012 10 16 0.00 0.00
3:56 pm 15:56 Sunny 91 32.8 26 -3.3 9 9 W 14 22 29.86 1011 10 16 0.00 0.00
4:56 pm 16:56 Sunny 90 32.2 26 -3.3 10 10 W 10 17 29.86 1011 10 16 0.00 0.00
5:56 pm 17:56 Sunny 89 31.7 25 -3.9 10 10 WNW 10 17 29.87 1011 10 16 0.00 0.00
6:56 pm 18:56 Sunny 85 29.4 24 -4.4 11 11 WNW 5 7 29.85 1011 10 16 0.00 0.00
7:56 pm 19:56 Clear 72 22.2 22 -5.6 15 15 SW 6 9 29.87 1012 10 16 0.00 0.00
8:56 pm 20:56 Clear 64 17.8 23 -5 21 21 Calm 29.89 1012 10 16 0.00 0.00
9:56 pm 21:56 Clear 61 16.1 26 -3.3 26 26 SSE 3 6 29.89 1012 10 16 0.00 0.00
10:56 pm 22:56 Clear 59 15 25 -3.9 27 27 Calm 29.90 1013 10 16 0.00 0.00
11:56 pm 23:56 Clear 57 13.9 27 -2.8 32 32 SSE 6 9 29.91 1013 10 16 0.00 0.00

Powered by AerisWeather